Date String (YYYY-MM-DD hh:mm:ss) UTC,Instrument flags,Ambient pressure (hPa),Sample flow (lpm),Bypass flow (lpm),Sample temperature (°C),Ambient temperature (°C),ASC tube jacket temperature (°C),LED temperature (°C),Box temperature (°C),Sample RH (%),Span deviation,Mass concentration (μg/m³),Mass concentration (μg/m³),Mass concentration (μg/m³)
DateTimeUTC,F1_M11,P_M11,Q1_M11,Q2_M11,T1_M11,T2_M11,T3_M11,T4_M11,T5_M11,U1_M11,ZSPAN_M11,X0_M11,X2_M11,X1_M11
2022-07-31 17:00:00,,0831.1,5.01,0.00,29.2,27.6,00.0,38.0,31.1,29.3,0000.0,0009.47,0006.14,0005.82
2022-07-31 17:01:00,,0831.1,5.00,0.00,29.2,27.8,00.0,38.0,31.2,28.6,0000.0,0009.74,0006.14,0005.81
2022-07-31 17:02:00,,0831.1,5.00,0.00,29.3,28.0,00.0,38.0,31.3,28.4,0000.0,0009.69,0006.12,0005.80
2022-07-31 17:03:00,,0831.1,4.99,0.00,29.3,28.1,00.0,38.0,31.3,28.7,0000.0,0009.64,0006.11,0005.78
2022-07-31 17:04:00,,0831.0,5.00,0.00,29.3,27.8,00.0,38.0,31.2,27.2,0000.0,0009.61,0006.09,0005.77
2022-07-31 17:05:00,,0831.1,5.02,0.00,29.3,27.2,00.0,38.0,31.1,26.5,0000.0,0009.68,0006.08,0005.74
2022-07-31 17:06:00,,0831.1,4.99,0.00,29.3,27.1,00.0,38.0,31.1,27.4,0000.0,0009.77,0006.05,0005.71
2022-07-31 17:07:00,,0831.1,5.00,0.00,29.2,27.2,00.0,38.0,30.9,28.4,0000.0,0009.80,0006.03,0005.69
2022-07-31 17:08:00,,0831.1,5.00,0.00,29.2,27.3,00.0,38.0,30.9,28.7,0000.0,0009.64,0006.03,0005.66
2022-07-31 17:09:00,,0831.2,5.00,0.00,29.2,27.5,00.0,38.0,31.0,28.4,0000.0,0009.42,0006.02,0005.65
2022-07-31 17:10:00,,0831.2,5.00,0.00,29.2,27.7,00.0,38.0,31.1,27.1,0000.0,0009.41,0006.02,0005.63
2022-07-31 17:11:00,,0831.2,5.00,0.00,29.3,27.9,00.0,38.0,31.2,27.4,0000.1,0009.19,0005.98,0005.62
2022-07-31 17:12:00,,0831.2,5.00,0.00,29.3,28.1,00.0,38.0,31.3,27.3,0000.2,0009.01,0005.96,0005.61
2022-07-31 17:13:00,,0831.1,5.00,0.00,29.3,28.1,00.0,38.0,31.3,27.0,0000.0,0009.56,0005.97,0005.60
2022-07-31 17:14:00,,0831.1,5.00,0.00,29.3,27.6,00.0,38.0,31.1,27.3,0000.0,0009.63,0005.96,0005.59
2022-07-31 17:15:00,,0831.1,5.01,0.00,29.3,27.1,00.0,38.0,31.1,26.5,0000.0,0009.89,0005.94,0005.58
2022-07-31 17:16:00,,0831.1,5.00,0.00,29.2,27.2,00.0,38.0,31.1,26.9,0000.0,0010.02,0005.93,0005.57
2022-07-31 17:17:00,,0831.1,5.00,0.00,29.2,27.3,00.0,38.0,31.0,27.2,0000.0,0009.86,0005.93,0005.55
2022-07-31 17:18:00,,0831.1,5.00,0.00,29.2,27.5,00.0,38.0,31.0,26.0,0000.0,0009.94,0005.92,0005.55
2022-07-31 17:19:00,,0831.1,5.00,0.00,29.2,27.7,00.0,38.0,31.1,27.5,0000.0,0010.44,0005.88,0005.54
2022-07-31 17:20:00,,0831.1,5.00,0.00,29.3,27.8,00.0,38.0,31.2,27.5,0000.0,0010.58,0005.92,0005.55
2022-07-31 17:21:00,,0831.1,5.00,0.00,29.3,28.0,00.0,38.0,31.3,27.9,0000.0,0010.57,0005.91,0005.55
2022-07-31 17:22:00,,0831.1,5.00,0.00,29.3,28.1,00.0,38.0,31.3,28.3,0000.0,0011.05,0005.93,0005.55
2022-07-31 17:23:00,,0831.1,4.99,0.00,29.3,27.6,00.0,38.0,31.2,27.5,0000.0,0011.44,0005.94,0005.55
2022-07-31 17:24:00,,0831.1,5.00,0.00,29.3,27.1,00.0,38.0,31.1,27.8,0000.0,0010.84,0005.94,0005.56
2022-07-31 17:25:00,,0831.1,4.99,0.00,29.2,27.1,00.0,38.0,31.1,26.1,0000.0,0010.80,0005.96,0005.57
2022-07-31 17:26:00,,0831.1,5.00,0.00,29.2,27.3,00.0,38.0,31.0,26.1,0000.0,0010.56,0006.00,0005.57
2022-07-31 17:27:00,,0831.0,5.00,0.00,29.2,27.4,00.0,38.0,31.0,25.8,0000.0,0010.43,0006.00,0005.57
2022-07-31 17:28:00,,0831.1,5.00,0.00,29.2,27.6,00.0,38.0,31.1,26.6,0000.0,0010.46,0005.98,0005.57
2022-07-31 17:29:00,,0831.1,4.99,0.00,29.3,27.8,00.0,38.0,31.2,26.5,0000.0,0010.47,0005.99,0005.58
2022-07-31 17:30:00,,0831.1,5.00,0.00,29.3,28.0,00.0,38.0,31.2,26.1,0000.0,0009.74,0005.99,0005.60
2022-07-31 17:31:00,,0831.1,5.00,0.00,29.3,27.8,00.0,38.0,31.2,25.5,0000.0,0009.62,0005.98,0005.62
2022-07-31 17:32:00,,0831.0,4.99,0.00,29.3,27.2,00.0,38.0,31.0,25.2,0000.0,0009.57,0006.00,0005.64
2022-07-31 17:33:00,,0831.0,5.01,0.00,29.2,27.0,00.0,37.9,31.0,25.1,0000.0,0009.67,0006.00,0005.65
2022-07-31 17:34:00,,0831.0,5.00,0.00,29.2,27.1,00.0,37.9,31.0,25.4,0000.0,0009.63,0006.02,0005.66
2022-07-31 17:35:00,,0831.0,5.00,0.00,29.1,27.3,00.0,37.9,30.9,25.7,0000.0,0010.54,0006.03,0005.66
2022-07-31 17:36:00,,0831.0,5.00,0.00,29.2,27.5,00.0,37.9,31.0,26.3,0000.0,0010.80,0006.06,0005.66
2022-07-31 17:37:00,,0831.0,4.99,0.00,29.2,27.7,00.0,37.9,31.1,25.1,0000.0,0010.81,0006.06,0005.68
2022-07-31 17:38:00,,0831.0,5.01,0.00,29.2,27.8,00.0,37.9,31.2,24.6,0000.0,0010.73,0006.05,0005.69
2022-07-31 17:39:00,,0831.0,5.01,0.00,29.3,28.0,00.0,38.0,31.2,25.2,0000.0,0010.67,0006.07,0005.71
2022-07-31 17:40:00,,0831.1,5.00,0.00,29.3,27.9,00.0,38.0,31.2,24.9,0000.0,0010.74,0006.09,0005.73
2022-07-31 17:41:00,,0831.0,5.00,0.00,29.3,27.3,00.0,37.9,31.1,25.1,0000.0,0010.81,0006.10,0005.73
2022-07-31 17:42:00,,0831.0,4.99,0.00,29.2,27.1,00.0,37.9,31.0,24.8,0000.0,0010.75,0006.07,0005.73
2022-07-31 17:43:00,,0831.0,5.00,0.00,29.2,27.2,00.0,37.9,31.0,24.8,0000.0,0010.89,0006.10,0005.72
2022-07-31 17:44:00,,0831.0,5.01,0.00,29.2,27.3,00.0,37.9,31.0,25.5,0000.0,0010.48,0006.11,0005.72
2022-07-31 17:45:00,,0831.0,5.00,0.00,29.2,27.5,00.0,37.9,31.0,25.0,0000.0,0009.94,0006.13,0005.74
2022-07-31 17:46:00,,0831.0,5.00,0.00,29.2,27.7,00.0,37.9,31.1,24.2,0000.0,0009.26,0006.14,0005.75
2022-07-31 17:47:00,,0831.0,4.99,0.00,29.2,27.9,00.0,37.9,31.1,24.8,0000.0,0009.16,0006.14,0005.76
2022-07-31 17:48:00,,0831.0,5.00,0.00,29.3,28.0,00.0,38.0,31.2,24.6,0000.0,0009.11,0006.13,0005.77
2022-07-31 17:49:00,,0830.9,5.00,0.00,29.3,27.9,00.0,38.0,31.2,23.5,0000.0,0009.14,0006.15,0005.79
2022-07-31 17:50:00,,0831.0,4.99,0.00,29.2,27.3,00.0,37.9,31.0,23.5,0000.0,0009.23,0006.16,0005.79
2022-07-31 17:51:00,,0830.9,5.02,0.00,29.2,27.0,00.0,37.9,31.0,23.1,0000.0,0009.24,0006.13,0005.78
2022-07-31 17:52:00,,0830.9,4.99,0.00,29.2,27.1,00.0,37.9,31.0,23.1,0000.0,0009.16,0006.12,0005.78
2022-07-31 17:53:00,,0830.9,4.99,0.00,29.1,27.2,00.0,37.9,30.9,23.6,0000.0,0009.20,0006.14,0005.78
2022-07-31 17:54:00,,0830.9,5.00,0.00,29.1,27.4,00.0,37.9,31.0,24.7,0000.0,0009.10,0006.11,0005.80
2022-07-31 17:55:00,,0830.9,4.99,0.00,29.2,27.6,00.0,37.9,31.0,24.2,0000.0,0009.09,0006.11,0005.80
2022-07-31 17:56:00,,0830.9,5.01,0.00,29.2,27.8,00.0,37.9,31.1,25.8,0000.0,0009.38,0006.10,0005.81
2022-07-31 17:57:00,,0830.9,5.00,0.00,29.2,28.0,00.0,37.9,31.2,25.5,0000.0,0009.72,0006.13,0005.83
2022-07-31 17:58:00,,0830.9,5.00,0.00,29.3,27.9,00.0,37.9,31.2,25.0,0000.0,0009.69,0006.15,0005.85
2022-07-31 17:59:00,,0830.9,5.01,0.00,29.2,27.2,00.0,37.9,31.1,25.2,0000.0,0009.82,0006.16,0005.85
